Wind_Speed
18 18 18 18 18 17 16 16 16 15 15 15 15 15 14 12 11 9 6 3 1 4 7 10 13 16 17 17 17 17 16 15 14 12 11 9 8 6 4 2 0 2 3 5 7 9 11 14 17 19 21 22 22 21 19 17 16 16 18 20 21 20 20 19 19 19 19 19 19
17 17 17 17 16 15 14 14 13 13 13 13 12 11 10 8 7 5 3 2 5 8 11 14 16 17 16 16 15 14 14 13 12 11 9 7 5 3 1 2 4 6 7 9 11 14 17 20 22 24 24 23 20 18 16 15 15 18 20 21 21 20 20 19 20 20 20 19 19
15 16 16 15 14 13 12 12 12 11 10 10 9 7 6 5 4 4 4 6 9 11 14 16 16 15 13 13 12 11 10 10 9 7 5 3 1 3 5 7 9 10 12 14 17 20 22 24 24 23 21 18 16 15 15 16 18 20 21 21 21 20 20 20 20 19 19 19 19
14 14 14 13 12 11 11 11 11 10 9 8 7 5 3 3 3 3 5 8 10 13 14 15 13 12 10 9 8 7 6 5 4 3 3 4 6 9 11 13 15 16 17 19 22 24 24 23 20 18 15 14 14 16 18 20 21 21 21 21 21 20 20 19 19 19 18 18 18
13 12 12 11 11 10 10 10 9 9 8 6 5 3 2 1 1 3 5 7 10 12 13 12 11 10 8 7 7 6 6 6 7 8 10 12 13 15 15 16 16 18 19 21 22 22 20 16 14 12 13 14 16 18 20 22 22 22 22 21 20 19 19 18 18 18 17 17 17
11 11 10 9 9 9 10 9 7 6 5 4 3 3 2 1 1 3 5 7 9 9 9 8 8 8 8 8 8 9 9 10 11 12 12 12 12 11 12 13 14 16 17 17 16 14 12 11 11 13 15 16 18 19 21 22 23 22 21 20 19 18 18 17 17 17 17 17 17
11 10 9 8 8 8 7 7 6 5 5 5 5 5 4 3 3 4 5 6 6 6 5 5 5 5 6 6 7 6 6 6 6 6 7 7 8 9 10 10 11 12 11 10 9 9 9 10 12 14 16 17 19 21 22 22 21 20 19 18 18 17 17 17 17 17 17 17 17
11 10 9 9 8 8 8 7 7 7 7 6 5 4 4 4 4 4 5 4 4 3 2 3 3 4 4 4 3 3 4 4 5 5 6 6 7 7 8 8 8 8 8 8 8 10 11 12 14 16 17 19 21 22 22 21 20 19 18 18 18 18 18 18 18 18 18 18 18
11 10 10 10 10 9 9 8 8 7 6 5 4 4 4 4 4 4 4 3 2 2 3 4 4 4 4 4 4 4 4 4 5 5 5 6 6 6 6 6 6 6 7 9 10 11 12 14 15 17 19 21 23 23 21 20 19 18 19 19 19 19 19 19 19 19 19 19 20
11 11 12 12 12 11 10 9 8 7 6 5 4 4 3 2 2 2 2 2 2 2 3 4 3 2 1 3 4 4 4 5 5 5 5 5 5 5 5 5 6 7 9 10 11 13 14 16 18 20 22 23 23 22 20 19 19 19 20 20 20 20 20 20 20 20 20 21 21
12 13 13 13 13 12 10 9 8 6 5 4 4 3 1 1 1 1 1 1 1 1 2 2 1 2 3 4 5 5 5 5 5 5 5 5 4 5 5 7 8 9 11 12 13 15 17 19 21 23 23 23 22 21 20 20 20 20 20 20 20 20 20 21 21 21 21 22 22
14 14 15 14 13 11 10 8 7 6 5 4 3 2 0 0 1 1 1 0 0 1 2 2 3 4 4 4 4 5 5 5 5 4 5 5 6 6 7 9 10 12 14 15 16 18 20 22 23 23 22 22 21 20 20 20 20 20 20 20 20 20 21 22 22 22 22 22 23
15 16 15 13 11 10 8 7 6 5 5 4 3 2 1 1 1 0 0 1 2 3 4 4 4 4 4 3 3 3 3 4 4 5 6 7 7 8 10 11 13 15 16 17 19 20 22 22 22 21 21 20 20 20 20 19 19 20 20 20 21 22 22 23 23 23 23 23 23
15 15 13 11 9 8 7 7 6 6 5 4 3 2 2 1 1 1 2 3 5 6 6 5 4 4 2 1 1 1 2 3 5 6 7 8 9 10 12 13 15 16 18 19 21 21 21 21 20 19 19 20 20 20 20 20 20 20 21 22 22 23 23 23 23 23 23 23 23
13 11 10 8 7 7 7 6 6 6 5 5 4 3 3 3 3 3 4 7 8 8 6 5 4 3 2 2 3 4 5 6 7 7 9 10 11 12 14 15 16 18 19 20 20 20 19 19 18 18 19 19 20 20 20 21 21 22 22 22 23 23 23 23 23 23 23 23 23
10 9 7 7 7 7 7 7 7 7 6 5 5 4 4 5 4 4 6 8 7 5 3 1 2 4 5 6 7 8 8 8 8 8 9 11 12 13 15 16 18 19 19 19 19 18 17 17 17 18 18 19 20 20 21 21 22 22 22 22 22 23 23 23 23 23 23 23 23
8 8 7 7 7 7 8 8 8 7 7 7 6 6 6 6 5 5 5 5 3 2 4 6 8 10 11 11 10 10 9 8 8 9 10 11 13 15 16 17 18 18 17 17 17 17 17 17 17 18 19 19 20 21 21 21 22 22 22 22 22 22 22 23 23 23 23 23 24
8 8 8 8 8 9 9 9 9 9 8 8 8 9 9 9 7 5 4 4 5 6 8 10 11 12 12 11 10 8 7 7 8 10 11 13 15 16 17 17 16 16 15 16 16 17 18 19 19 19 20 20 20 21 21 21 21 21 22 22 22 22 23 23 24 24 24 24 24
10 10 10 10 10 10 9 9 10 10 10 10 11 11 11 10 8 7 5 6 7 8 9 11 11 11 10 8 7 7 7 8 10 12 14 15 15 15 15 15 15 15 16 17 18 19 20 20 20 20 20 20 20 21 21 21 21 22 22 23 23 23 24 24 24 24 24 24 24
11 11 11 11 10 10 10 10 11 11 12 12 13 13 12 11 9 7 6 7 9 10 10 10 10 9 8 7 7 8 9 11 13 15 15 15 14 14 14 15 16 17 18 19 20 20 20 21 21 20 20 20 21 21 21 22 22 23 23 24 24 24 24 24 24 24 24 24 24
12 11 11 11 11 11 11 11 12 12 13 14 14 14 12 10 8 7 8 9 10 10 10 9 8 7 8 9 10 12 14 15 16 15 14 13 13 14 15 17 18 19 20 20 20 21 21 21 21 21 21 21 21 22 22 23 23 24 24 24 24 25 24 24 24 24 24 24 24
12 12 11 11 11 12 12 12 13 13 14 15 15 14 12 10 8 9 11 12 11 10 9 9 8 8 10 12 14 16 16 16 14 13 13 13 15 16 17 19 20 20 21 21 21 21 21 21 21 21 21 21 22 22 23 23 23 24 24 24 24 25 25 25 24 24 24 24 24
13 12 12 12 12 12 13 14 14 15 15 15 15 14 13 11 10 12 13 13 11 10 9 9 9 10 12 14 15 15 14 13 12 12 13 15 16 18 19 19 20 20 20 20 20 20 20 21 21 21 22 22 22 23 23 23 23 23 24 24 25 25 25 25 25 25 25 25 25
12 12 12 12 13 13 14 15 15 16 16 16 15 14 13 13 13 14 14 12 10 9 9 9 10 11 13 13 12 11 11 11 12 14 15 17 18 18 19 19 20 20 20 20 20 20 20 20 20 21 22 22 22 23 23 23 23 23 23 24 25 25 26 26 26 26 26 27 27
12 12 12 12 13 14 14 15 16 16 16 15 15 15 15 15 15 14 13 10 9 9 9 9 10 10 10 9 9 9 10 12 14 16 17 17 18 19 19 19 19 19 19 19 19 19 19 20 20 21 21 22 22 22 23 23 22 23 23 23 24 25 25 26 27 27 28 28 28
11 12 12 13 13 14 14 15 16 16 15 15 15 16 16 16 14 13 11 9 8 8 8 8 8 7 7 7 8 9 11 12 14 15 17 18 19 19 20 20 19 19 19 19 19 19 20 20 21 21 21 21 22 22 22 22 22 22 23 23 24 24 25 26 27 28 29 29 29
11 12 12 13 13 14 14 15 15 15 16 16 16 16 16 14 13 11 9 7 6 5 5 5 5 6 7 8 9 10 11 12 13 14 16 17 18 20 20 20 19 19 19 19 19 20 20 21 21 21 21 21 20 21 21 21 22 22 23 23 24 24 25 26 27 28 29 29 29
12 12 12 13 13 14 15 15 16 16 16 16 15 15 14 13 11 9 6 4 3 3 3 4 5 7 8 9 10 10 11 12 13 14 15 16 18 19 20 19 19 19 19 19 20 20 21 21 21 20 20 19 19 19 20 21 21 22 23 23 24 25 26 26 27 28 28 29 29
13 13 13 13 14 15 16 17 17 17 16 15 14 14 13 12 9 7 4 3 2 2 3 5 7 9 10 10 10 11 11 12 12 13 15 16 18 19 19 19 19 19 20 20 20 20 20 20 20 19 19 18 18 19 20 21 22 23 24 24 25 25 26 27 27 27 27 27 27
14 14 14 14 15 15 16 17 17 16 15 14 14 13 12 10 7 5 4 2 2 4 5 7 8 9 10 10 11 12 12 12 12 13 15 16 18 18 19 19 19 19 20 20 20 20 20 19 19 18 18 18 18 19 20 21 22 23 24 25 26 26 26 27 27 27 27 27 27
14 14 14 14 15 15 16 17 17 17 16 15 14 12 9 6 4 3 3 3 4 6 7 8 9 10 11 11 12 12 12 12 13 14 15 16 17 17 18 18 19 19 19 19 19 19 18 18 18 18 18 19 19 20 21 22 23 24 25 25 26 26 26 26 26 26 26 26 26
15 15 15 15 16 16 17 17 17 16 15 13 10 7 4 3 3 3 4 6 7 8 10 10 11 12 12 12 11 11 11 12 14 14 15 15 16 17 18 18 19 19 19 18 18 17 17 17 17 18 19 19 20 21 22 23 24 24 25 25 25 25 25 25 24 24 25 25 26
16 16 17 17 17 16 16 15 14 12 10 7 4 2 2 2 4 6 8 9 10 11 12 12 12 12 12 11 11 11 12 13 14 14 14 15 15 16 17 18 18 18 17 17 17 17 17 17 18 19 20 21 21 22 23 23 24 24 24 24 24 24 23 23 23 24 24 25 26
17 17 17 17 15 13 12 10 9 6 3 1 1 1 3 5 8 10 12 12 13 13 13 12 11 11 10 10 11 13 14 14 14 14 14 14 15 16 17 17 17 17 16 16 16 17 17 18 19 20 21 21 22 22 22 23 23 24 24 24 23 23 22 22 22 23 24 25 26
13 12 12 10 9 7 5 4 3 1 0 1 2 4 7 10 12 13 14 14 14 13 12 11 10 9 10 11 12 13 14 14 13 13 14 14 15 16 17 17 16 16 15 16 16 17 18 19 20 21 21 21 21 21 22 22 23 23 23 22 22 22 21 22 22 23 24 24 24
5 5 4 3 3 3 2 1 1 2 3 5 7 9 12 14 15 15 15 14 13 12 11 10 10 10 11 12 12 12 12 12 13 13 14 15 15 16 16 16 16 16 16 16 17 19 20 20 21 21 20 20 21 21 22 22 22 22 22 21 21 21 21 22 22 23 23 22 21
6 7 6 6 5 4 3 3 4 7 9 10 12 14 15 16 16 15 14 13 11 11 11 11 11 11 11 11 11 11 12 12 13 14 15 15 15 15 15 15 16 16 17 17 19 20 21 21 21 20 20 20 21 22 22 22 22 21 21 20 21 21 21 21 21 22 21 21 20
5 5 5 5 5 4 5 6 9 12 13 14 15 16 16 16 15 14 12 11 11 11 12 11 11 11 11 11 12 12 13 14 14 14 14 14 14 14 15 16 17 17 18 19 20 21 22 22 21 20 19 20 21 22 22 22 21 21 21 20 21 21 21 21 21 21 21 22 23
4 5 5 5 6 7 9 11 12 14 15 15 15 15 14 13 13 12 11 11 11 11 11 11 11 11 12 12 13 14 14 14 14 13 13 13 13 14 15 16 18 19 19 20 21 22 22 22 21 20 19 20 21 22 22 22 22 22 21 21 21 21 21 21 21 22 23 24 25
4 4 5 6 8 10 11 12 13 13 13 13 12 12 11 11 11 10 10 10 10 10 11 11 12 13 13 14 14 14 14 14 13 12 12 13 14 14 16 17 18 19 20 20 21 22 22 22 21 20 20 20 21 22 22 22 22 22 22 22 21 22 22 22 22 22 22 23 24
4 5 7 8 9 10 10 10 10 10 10 9 10 9 9 9 10 10 10 11 11 11 12 13 13 13 14 14 14 14 14 13 12 12 12 13 14 15 16 17 18 19 20 21 21 22 22 21 21 20 20 21 22 22 23 22 22 22 22 22 22 22 21 21 21 21 22 23 24
Wind_Direction
313 314 315 317 319 320 322 323 325 329 334 337 340 341 342 342 342 342 342 345 138 149 150 150 149 148 147 148 149 149 149 150 152 154 157 158 161 160 157 163 205 321 324 321 317 314 312 311 310 308 307 305 303 301 299 298 299 295 289 284 285 288 292 293 295 296 297 298 299
312 313 314 316 317 318 319 321 324 328 333 338 341 342 345 350 357 4 20 91 130 138 139 138 138 138 139 141 143 144 146 148 150 152 153 155 159 164 221 304 308 307 304 302 301 302 303 304 305 304 304 303 303 302 300 298 293 285 281 283 288 293 295 295 297 298 299 300 301
310 311 313 314 314 314 315 318 320 324 329 333 338 342 349 2 16 36 78 119 134 139 139 137 136 137 138 139 140 142 145 148 150 152 155 167 221 278 288 288 285 283 284 288 293 297 299 300 301 301 301 301 301 299 295 291 284 281 283 289 293 295 296 296 297 298 299 300 301
309 310 310 310 309 308 310 314 316 319 322 325 328 333 346 5 30 75 113 132 140 142 141 141 142 143 145 146 149 153 160 167 177 195 232 262 271 272 270 268 269 273 279 286 291 295 297 298 298 298 298 297 294 289 285 283 283 286 290 293 295 295 295 296 297 298 298 299 300
306 306 306 305 304 306 309 312 312 313 313 310 308 307 312 340 67 125 140 145 144 144 145 149 153 158 165 175 185 196 210 223 237 248 254 258 259 261 263 267 274 280 286 290 292 294 296 298 297 295 293 290 286 284 284 286 288 291 293 294 294 295 295 296 297 298 299 299 300
301 301 300 300 301 306 309 306 303 302 300 288 272 273 275 239 188 162 156 151 147 148 155 162 168 176 185 195 205 214 222 231 239 246 250 254 259 266 276 286 291 295 297 297 297 298 299 298 295 291 288 287 286 286 288 290 291 292 292 293 293 294 295 295 297 298 299 299 300
297 295 295 296 299 303 304 297 290 288 285 275 260 260 255 213 185 169 160 153 151 155 167 181 192 200 207 210 216 226 237 247 257 264 272 282 292 299 303 306 307 308 308 307 305 301 297 294 291 289 288 288 288 289 290 291 292 291 291 291 292 294 295 295 297 298 299 300 300
295 293 293 293 294 294 291 283 280 280 278 268 251 241 228 203 187 175 167 162 162 174 202 228 239 247 253 261 273 290 305 315 320 321 320 320 320 320 319 318 318 316 313 306 299 294 291 290 289 288 288 288 288 289 291 292 291 290 290 291 293 294 295 297 298 300 301 301 302
296 294 293 291 290 287 283 277 275 274 268 252 229 212 201 197 187 183 181 180 192 220 241 249 254 262 281 318 342 351 352 350 347 344 339 334 332 329 325 321 316 307 299 293 290 288 288 288 288 288 288 288 288 289 290 290 290 290 291 293 294 296 297 299 300 301 302 303 302
297 295 292 289 286 283 278 273 269 265 256 242 221 209 206 204 202 202 205 211 232 244 244 240 239 244 349 29 35 34 28 19 11 2 356 350 342 332 319 306 295 288 285 284 285 286 286 286 286 286 287 288 289 289 290 290 291 291 293 294 296 298 299 300 302 302 303 303 302
298 294 291 288 284 279 273 267 261 254 245 233 218 212 214 217 217 221 242 266 261 240 221 215 180 83 63 57 53 47 39 30 21 12 3 353 341 322 305 293 288 285 283 283 284 285 285 286 286 288 289 290 290 290 291 291 292 293 295 296 298 299 300 302 303 303 303 303 301
297 294 291 287 280 273 266 259 250 241 231 221 213 207 187 60 43 6 335 313 180 155 139 113 77 64 58 53 46 39 29 18 6 352 338 324 313 304 297 291 287 284 283 284 286 287 288 289 290 291 291 291 291 292 293 294 295 296 297 299 300 301 302 303 303 303 302 301 300
294 292 289 283 274 265 256 247 236 226 216 208 203 191 161 105 71 34 55 136 151 145 130 107 89 77 67 56 39 21 4 347 330 316 305 297 292 288 284 283 282 283 285 287 290 292 293 294 293 293 292 293 293 295 296 297 298 299 300 301 302 302 302 303 303 302 301 299 297
291 289 285 278 267 255 243 233 222 214 207 199 195 190 178 170 178 188 174 161 156 149 139 126 121 118 114 105 63 324 305 295 289 285 282 281 279 279 279 281 283 286 289 292 295 297 297 297 296 295 295 296 297 298 299 300 301 302 302 302 302 302 302 302 301 301 299 297 295
290 286 280 269 256 243 233 222 214 208 203 197 196 195 190 184 189 194 182 164 153 146 141 138 142 155 182 224 252 262 265 267 268 269 271 273 275 278 280 284 287 290 293 296 298 299 300 299 299 299 300 300 301 302 303 303 303 303 303 302 302 301 301 300 300 299 297 296 294
289 281 271 258 246 236 227 218 212 208 204 201 202 198 192 186 186 178 164 155 149 146 151 196 263 277 281 282 281 279 276 273 270 269 270 273 277 281 284 287 290 292 295 297 299 300 301 302 303 303 304 304 305 305 305 305 305 304 303 302 301 300 300 300 299 298 297 296 294
284 275 264 253 243 235 228 220 216 211 209 207 206 203 197 191 178 163 156 163 180 235 279 290 294 295 294 291 289 285 280 276 273 273 274 278 282 285 288 290 292 295 298 301 303 304 304 305 306 307 307 307 307 307 307 306 306 305 304 303 302 301 300 300 300 299 298 297 295
278 270 261 252 244 238 233 226 221 218 215 213 211 206 201 197 188 183 193 224 260 281 292 296 298 296 292 289 286 281 276 273 273 276 279 283 286 289 291 294 297 301 304 306 307 308 309 309 310 310 310 310 310 309 309 308 307 307 306 305 304 303 303 302 302 301 299 298 296
275 267 259 252 246 242 237 232 226 222 219 216 212 207 201 199 205 217 239 267 283 289 291 290 289 286 283 281 278 275 273 273 276 280 283 287 290 293 296 301 305 308 310 311 311 312 312 312 313 313 313 313 312 312 311 311 310 309 308 307 306 305 305 304 303 302 300 299 297
274 266 259 253 248 244 240 236 231 225 221 216 211 205 201 202 212 232 260 283 291 290 284 278 275 272 272 273 273 274 275 278 281 284 288 292 296 300 305 309 311 312 313 313 314 314 314 315 315 316 316 315 315 314 313 312 311 310 309 308 307 306 305 303 302 301 300 298 297
273 265 259 254 250 247 244 240 235 229 223 217 211 206 205 208 223 253 282 293 292 285 274 266 261 263 268 273 277 279 282 285 288 291 294 299 304 309 312 313 314 314 314 314 315 315 316 316 316 317 316 315 315 314 313 312 311 310 309 307 306 304 303 302 300 299 297 296 295
272 265 260 255 252 250 247 243 238 232 226 220 215 212 212 220 242 274 292 296 288 274 260 253 254 263 273 281 285 288 290 292 294 297 302 307 311 313 314 314 314 314 314 314 315 315 315 315 315 315 315 314 313 313 312 311 310 309 307 306 304 302 301 300 298 297 295 294 293
270 264 259 256 254 252 248 244 239 234 229 225 221 220 224 236 260 281 291 291 281 265 252 249 258 270 282 289 293 294 296 297 301 306 311 314 315 315 315 314 313 313 313 313 314 314 314 314 314 313 313 313 312 312 311 310 309 307 305 304 302 300 299 297 296 295 294 293 292
264 260 258 257 255 251 247 243 239 236 233 231 231 233 240 255 271 283 288 285 275 262 254 257 268 281 290 296 299 302 305 309 313 316 317 317 317 316 314 313 312 312 312 312 312 312 313 314 314 313 313 312 311 311 309 308 307 305 303 302 300 299 297 296 295 293 293 292 292
258 257 257 256 253 250 246 242 240 239 239 241 244 250 259 269 278 283 284 280 272 265 264 271 280 289 296 302 309 315 319 322 323 322 321 319 318 316 315 313 312 311 311 311 311 312 312 313 313 313 313 311 311 309 308 306 305 303 301 299 298 297 296 295 294 294 293 293 293
258 259 260 258 255 250 246 243 244 245 248 253 258 264 270 275 279 280 280 278 275 275 278 284 290 297 305 314 321 325 326 326 325 323 321 320 318 316 314 313 311 311 311 311 312 312 312 312 313 312 312 311 310 308 306 305 303 301 299 298 297 296 296 296 295 295 295 294 293
262 262 262 260 256 251 248 248 250 254 259 264 268 271 273 274 276 277 279 282 283 283 283 290 300 311 319 324 327 327 326 324 323 321 319 317 315 314 312 311 311 311 312 313 313 313 313 313 312 312 311 310 308 307 305 303 301 299 298 297 297 297 297 296 296 295 295 294 293
261 261 261 259 255 253 254 256 259 263 267 270 272 272 272 272 275 278 281 283 281 276 281 299 316 325 328 329 329 327 325 322 321 319 316 313 310 309 309 310 310 311 312 313 313 313 313 313 312 312 310 309 307 305 303 302 301 300 300 299 299 298 297 296 295 294 294 293 292
260 261 259 257 257 259 262 264 266 269 271 271 271 271 272 275 278 279 273 262 268 294 310 316 324 329 332 333 331 329 326 323 320 316 311 307 305 305 306 308 309 311 312 313 313 313 313 313 312 311 310 308 306 304 303 302 302 302 302 301 299 298 296 295 294 293 292 292 292
262 262 261 260 262 264 266 268 269 270 270 269 269 272 276 280 276 265 255 264 310 318 313 317 327 333 336 335 333 331 327 322 316 310 304 302 302 303 304 306 309 311 312 313 314 314 313 313 312 310 309 308 306 306 306 305 305 304 303 301 299 298 297 295 294 293 293 293 292
263 263 264 264 265 266 267 268 268 268 269 271 274 278 279 273 260 259 274 302 321 323 324 329 335 338 338 335 332 327 321 313 306 301 299 299 301 303 305 308 310 312 313 314 314 314 313 313 312 311 310 310 310 309 308 307 306 304 302 301 299 298 298 297 296 295 294 294 292
264 264 264 263 262 262 264 267 270 274 278 280 281 278 267 251 266 301 320 321 327 333 338 341 342 340 336 332 326 317 307 300 297 297 299 301 303 306 308 310 312 314 314 315 315 314 314 313 313 313 313 313 312 310 308 307 305 304 302 301 300 300 299 298 297 295 294 293 291
261 260 260 260 261 264 270 278 286 291 292 288 273 251 251 284 314 326 332 333 336 339 341 341 338 334 328 320 309 300 294 293 295 297 300 304 306 309 311 312 314 315 316 316 316 315 315 315 316 316 315 314 312 310 308 307 306 304 303 302 301 301 300 298 296 295 293 292 291
262 264 266 268 272 280 290 300 305 306 296 261 226 281 312 320 325 330 334 336 337 337 336 333 328 320 310 300 292 290 291 293 296 300 304 308 310 312 313 314 315 316 317 317 317 317 318 318 318 317 316 313 311 309 308 308 307 306 305 304 302 301 299 297 295 294 293 293 291
281 284 285 288 296 307 316 317 318 316 292 283 314 318 321 325 329 332 333 333 332 330 328 323 315 303 294 289 288 290 293 297 302 307 311 313 314 315 315 316 317 318 319 319 319 320 320 320 319 317 315 313 311 310 309 309 308 307 306 304 302 300 298 297 296 295 295 294 292
345 355 4 15 23 32 40 42 15 351 336 324 322 324 327 330 331 331 330 328 327 324 318 310 301 295 293 294 296 299 303 308 313 315 316 316 316 316 316 317 318 319 320 322 322 322 322 321 319 318 316 314 312 311 311 310 309 308 306 304 302 300 299 298 298 297 296 295 294
49 56 63 67 69 70 61 22 349 338 331 326 325 327 329 330 330 329 327 325 321 315 309 305 302 301 302 305 310 314 317 319 319 319 319 318 318 318 318 318 319 321 322 324 324 324 323 321 319 317 315 314 313 312 312 311 309 308 306 305 303 301 300 299 299 298 296 295 298
60 61 61 60 52 36 6 344 334 329 326 326 326 327 327 327 326 326 324 321 315 310 308 309 309 311 315 319 321 322 322 321 321 321 321 320 320 320 320 320 321 323 324 325 325 324 322 321 319 317 316 314 313 313 312 311 309 308 307 305 304 302 301 300 298 296 295 296 299
66 57 45 29 9 350 337 330 327 325 325 325 326 326 325 325 324 324 322 320 317 316 317 319 320 322 324 325 324 324 324 323 323 323 322 322 322 322 323 323 323 324 324 324 324 323 322 320 319 317 316 315 314 313 312 311 309 308 307 306 304 302 300 298 296 294 294 295 297
46 25 5 350 338 331 327 326 325 325 325 326 327 327 327 326 325 324 324 324 325 326 326 326 325 325 325 325 326 326 327 326 326 325 324 324 324 325 325 325 324 324 323 323 323 323 322 321 319 318 316 315 314 313 313 312 310 309 307 305 303 301 298 296 294 294 294 296 297
356 344 337 332 328 327 327 328 329 330 330 330 330 330 330 329 328 328 329 329 328 328 327 326 326 326 326 327 328 329 329 328 327 326 326 326 326 327 327 326 324 323 323 322 322 322 322 321 320 319 317 316 315 314 313 313 311 309 306 304 302 299 296 296 297 297 298 298 298
Height
789 788 788 787 786 785 784 783 782 781 780 778 777 776 775 774 773 772 771 771 770 770 771 771 772 773 774 774 774 774 775 776 776 778 779 781 782 783 784 785 785 786 786 787 787 788 789 789 790 790 790 790 791 791 791 791 791 791 792 792 791 791 791 790 790 790 789 789 788
788 788 787 786 785 784 783 782 781 780 779 778 777 776 776 775 774 773 772 771 771 771 772 772 773 774 774 775 775 775 775 776 777 778 779 780 781 782 783 784 784 785 786 787 788 788 789 789 789 789 789 790 790 790 790 790 790 790 790 790 790 789 789 789 788 788 787 787 786
787 786 786 786 785 784 783 782 781 780 779 778 777 776 776 775 774 773 773 772 772 772 772 773 774 775 775 775 776 776 776 777 777 778 779 780 781 782 782 783 784 786 786 787 788 788 788 788 789 789 789 789 789 789 789 788 789 789 789 788 788 788 787 787 787 786 786 786 785
786 786 785 785 784 783 782 781 780 780 779 778 777 777 776 775 775 774 774 773 773 772 773 773 774 775 776 776 776 777 777 778 778 779 779 780 781 782 783 784 785 785 786 786 787 787 787 788 788 788 788 788 788 787 787 787 787 787 787 787 786 786 786 786 786 785 785 784 784
785 785 785 784 783 783 782 781 780 779 778 778 777 776 776 776 775 775 774 774 773 773 773 773 774 775 775 776 776 777 777 778 778 779 779 780 781 781 782 783 784 784 785 785 785 786 786 787 787 787 786 786 786 786 786 786 786 786 786 786 785 785 785 784 784 784 783 783 782
784 784 784 783 783 782 781 781 780 779 778 777 777 776 776 776 775 775 775 774 774 774 774 774 774 774 775 775 775 776 776 776 777 777 778 779 780 781 781 782 783 783 783 784 784 785 785 786 786 786 785 785 785 785 785 785 785 784 784 784 784 784 783 783 783 782 782 781 781
784 783 783 783 782 781 781 780 779 779 778 777 777 776 776 776 775 775 775 775 775 775 775 775 776 775 775 775 775 775 775 776 776 777 777 778 779 779 780 781 781 782 782 783 783 784 784 785 785 785 784 784 784 784 784 784 783 783 783 782 782 782 782 781 781 781 781 780 780
783 783 782 782 781 781 780 780 779 778 778 777 776 776 776 775 775 775 775 775 775 775 776 776 776 776 776 776 776 776 776 776 776 777 777 778 778 778 779 780 781 781 782 783 783 783 784 784 784 783 783 783 782 782 782 782 782 781 781 781 781 780 780 780 780 779 779 778 778
782 782 782 781 781 781 780 779 779 778 777 777 776 776 776 775 775 775 774 774 775 775 775 776 776 777 777 777 777 776 776 776 776 776 777 777 777 778 779 780 780 781 782 782 782 783 783 783 782 782 782 781 781 781 781 781 780 780 779 779 779 778 778 778 778 777 777 777 776
782 782 781 781 780 780 779 779 778 778 777 777 776 776 776 775 775 775 774 774 774 774 775 775 776 776 777 777 777 777 776 776 777 777 777 777 777 778 779 779 780 781 781 781 781 781 781 781 781 780 780 780 780 779 779 779 779 778 778 777 777 777 776 776 776 776 776 775 775
781 781 781 780 779 779 778 778 778 777 777 777 776 776 776 775 775 775 774 774 774 775 775 775 776 776 776 777 777 777 777 777 777 777 777 777 778 778 779 779 780 780 780 780 780 780 780 780 779 779 778 778 778 778 778 777 777 776 776 776 776 775 775 775 775 774 774 774 773
781 780 780 779 779 778 778 777 777 777 777 776 776 776 776 776 775 775 775 775 775 775 776 776 776 776 776 777 777 777 777 777 777 777 777 777 778 778 778 779 779 779 779 779 779 779 778 778 777 777 777 777 777 776 776 776 776 775 775 774 774 773 773 773 773 773 772 772 771
780 779 778 778 778 777 777 777 776 776 776 776 776 776 776 775 775 775 775 775 775 776 776 776 776 776 777 777 777 777 777 777 777 777 777 777 777 777 778 778 778 778 778 778 777 777 777 776 776 776 776 776 775 775 775 775 774 774 773 773 772 772 771 771 771 771 771 770 770
779 778 777 777 777 776 776 776 776 776 776 776 776 775 775 775 775 775 775 775 775 776 776 776 776 776 777 777 777 777 777 777 777 777 777 777 777 777 777 777 777 777 776 776 776 776 776 775 775 775 774 774 774 774 773 773 773 772 771 771 771 770 770 769 769 769 768 768 767
778 777 777 777 776 776 776 776 775 775 775 775 775 775 775 775 775 775 775 775 775 775 776 776 776 776 776 776 776 777 777 777 776 776 776 776 776 776 776 776 776 776 775 775 775 774 774 774 774 773 773 772 772 772 772 771 771 771 770 769 769 768 768 767 767 767 766 766 765
777 777 777 776 776 776 775 775 775 774 774 774 774 774 774 774 774 774 775 775 775 775 776 776 776 776 776 776 776 776 776 776 776 776 775 775 775 775 775 775 775 775 774 774 773 773 773 772 772 772 771 771 771 770 770 769 769 769 768 767 767 766 766 766 765 765 764 764 763
777 777 776 776 776 776 775 775 774 774 773 773 773 773 773 774 774 774 774 775 775 775 775 775 775 775 775 775 775 775 774 774 774 774 774 774 774 774 774 774 774 773 773 772 772 772 771 771 771 771 770 769 769 768 768 767 767 766 766 766 765 765 764 764 763 763 762 762 761
777 776 776 776 775 775 775 774 773 773 773 772 772 772 772 772 773 773 774 774 774 774 774 774 774 774 774 773 773 773 773 773 773 773 774 773 773 773 773 773 772 772 772 771 771 771 770 770 769 769 768 768 767 766 766 766 765 765 764 764 763 763 762 762 761 761 760 760 759
776 776 776 775 775 774 774 774 773 772 772 771 771 771 771 771 771 772 772 773 773 773 773 773 773 772 772 772 772 772 772 772 773 773 773 773 772 772 772 771 771 771 771 770 770 769 769 768 768 767 766 766 765 765 764 764 763 763 762 761 761 761 760 760 759 759 758 758 757
776 775 775 775 774 774 774 773 773 772 771 771 770 770 770 770 770 771 771 771 772 772 772 772 772 772 772 772 772 772 772 772 772 772 772 772 771 771 771 771 770 770 769 769 768 768 767 766 766 765 765 764 763 763 762 762 761 761 760 760 759 759 758 758 757 757 756 756 756
775 774 774 774 774 773 773 773 772 772 771 770 770 769 769 769 770 770 770 771 771 771 771 771 771 771 771 771 771 771 771 771 771 771 771 771 771 770 770 769 769 768 768 767 767 766 766 765 764 764 763 762 762 761 761 760 759 759 758 758 757 757 756 756 756 755 755 754 754
774 773 773 773 773 773 773 772 772 771 771 770 769 769 769 769 769 769 769 769 770 770 770 770 770 770 771 771 771 771 771 771 771 770 770 770 769 769 768 768 767 767 766 766 765 765 764 763 763 762 761 761 760 760 759 758 757 757 756 756 756 755 755 754 754 753 753 752 752
772 772 772 772 772 772 772 772 771 771 770 770 769 769 768 768 768 768 768 768 768 768 769 769 769 769 770 770 770 770 770 770 769 769 769 768 768 767 767 766 766 766 765 765 764 763 762 762 761 761 760 759 759 758 757 757 756 755 755 754 753 753 753 752 752 751 751 751 750
771 771 771 771 771 771 771 771 771 771 770 770 769 769 768 768 767 767 767 767 767 767 768 768 768 769 769 769 769 769 769 768 768 768 767 767 766 766 766 766 765 765 764 763 763 762 761 761 760 759 758 758 757 756 756 755 755 754 753 752 752 751 751 750 750 749 749 748 748
770 770 770 771 771 771 771 771 770 770 770 770 769 769 768 767 766 766 766 766 766 766 767 767 767 767 767 767 767 767 767 767 767 766 766 766 765 765 765 764 764 763 763 762 761 761 760 759 759 758 757 756 756 755 754 754 753 752 751 751 750 749 748 748 747 747 746 746 746
769 769 769 770 770 770 770 770 770 770 770 770 769 769 768 767 766 765 765 765 765 765 766 766 766 766 766 766 766 766 766 766 766 765 765 764 764 764 764 763 763 762 762 761 760 760 759 758 757 756 756 755 754 753 752 752 751 751 750 749 748 747 747 746 745 744 744 744 743
769 769 768 769 769 769 769 769 769 769 769 769 769 768 767 766 765 764 764 764 764 764 764 764 764 764 765 765 765 765 765 765 764 764 764 763 763 763 763 762 762 761 760 760 759 758 757 756 756 755 754 754 753 752 751 750 749 749 748 747 746 746 745 744 743 742 742 741 741
768 768 768 768 768 768 769 769 769 769 769 768 768 768 767 766 765 764 763 763 762 762 762 763 763 763 763 763 764 763 763 763 763 763 763 763 762 762 762 761 761 760 759 758 757 756 756 755 754 754 753 752 751 750 749 749 748 747 746 746 745 744 743 742 741 741 740 739 738
768 768 767 767 767 767 768 768 768 768 768 768 768 767 767 766 765 764 763 761 761 761 761 761 762 762 762 762 762 762 762 762 762 762 762 762 761 761 761 760 759 758 757 756 756 755 754 753 753 752 751 751 750 749 748 747 746 745 745 744 743 742 741 741 740 739 738 737 736
767 767 767 766 766 766 766 767 767 767 767 767 767 767 767 766 765 764 762 761 761 760 761 761 761 761 761 761 761 761 761 761 761 761 761 761 760 760 759 758 757 756 756 755 754 753 753 752 751 751 750 749 748 747 746 746 745 744 743 742 741 740 740 739 738 737 736 735 734
766 766 766 766 765 765 766 766 766 766 766 766 766 767 766 766 765 764 762 761 761 760 760 760 760 760 760 760 760 760 760 760 760 760 760 759 759 758 757 756 756 755 754 753 753 752 751 751 750 749 748 747 746 746 745 744 743 742 741 740 739 738 737 737 736 735 734 733 732
766 765 765 765 765 765 765 765 766 766 766 766 766 766 766 766 765 764 763 762 761 760 760 759 759 759 759 759 759 759 759 759 759 759 758 758 757 756 756 755 754 753 752 752 751 751 750 749 748 747 747 746 745 744 743 742 741 740 739 738 737 736 736 735 734 733 732 731 731
765 765 764 764 764 764 764 765 766 766 766 766 766 766 766 766 765 764 763 762 761 760 759 758 758 758 758 758 758 758 758 758 758 757 757 756 756 755 754 753 752 752 751 751 750 749 748 748 747 746 745 744 743 742 741 741 740 739 737 736 736 735 734 733 732 731 731 730 729
764 764 764 764 764 764 764 765 766 766 766 766 766 766 766 766 765 764 763 762 761 760 759 758 758 758 758 757 757 757 757 756 756 756 756 755 754 753 752 751 751 751 750 749 749 748 747 746 746 745 744 743 742 741 740 739 738 737 736 735 734 733 732 732 731 730 729 728 727
763 763 763 763 764 764 764 765 766 766 766 766 766 766 766 765 765 764 763 762 761 760 759 758 758 757 757 756 756 756 756 756 755 755 754 753 752 751 751 750 750 749 749 748 747 746 746 745 744 743 742 741 740 739 738 737 736 735 734 733 732 731 731 730 729 728 727 726 725
763 763 763 763 763 764 764 765 766 766 766 766 766 766 766 765 764 763 762 761 760 759 758 758 757 756 756 756 756 755 755 755 754 753 752 751 751 750 749 749 749 748 747 747 746 745 744 743 742 742 741 740 739 738 737 736 735 734 733 732 731 730 729 728 727 726 726 725 724
763 763 763 763 763 764 765 765 766 766 766 766 766 766 765 764 763 763 762 761 760 759 758 757 757 756 756 756 755 755 754 753 752 751 751 750 750 749 748 748 747 747 746 746 745 744 743 742 741 741 740 738 737 736 736 735 733 732 731 731 729 728 727 727 726 725 724 723 722
763 763 763 763 764 764 765 765 766 766 766 766 765 765 764 763 763 762 761 761 760 759 758 757 756 756 756 755 754 753 753 752 751 751 750 749 749 748 747 747 746 746 745 744 743 742 741 741 740 739 738 737 736 735 734 733 732 731 730 729 728 727 726 725 724 723 723 722 721
762 763 763 763 764 764 765 765 765 765 765 764 764 764 763 763 762 761 761 760 760 759 758 757 756 756 755 754 753 752 752 751 751 750 749 749 748 747 746 746 745 744 743 743 742 741 740 740 739 738 737 736 735 734 733 732 731 730 729 728 726 725 724 723 723 721 721 720 719
762 762 762 763 763 763 764 764 764 764 764 763 763 762 762 762 761 761 761 760 759 758 758 757 756 755 754 753 752 751 751 750 750 749 749 748 747 746 746 745 744 743 742 741 741 740 739 738 737 737 736 735 734 733 732 731 730 728 727 726 725 724 722 721 720 720 718 717 717
762 762 762 762 762 763 763 763 763 763 763 762 762 762 761 761 761 761 760 759 759 758 757 756 755 754 753 752 751 751 750 750 749 749 748 747 746 746 745 744 742 741 741 740 740 739 738 737 736 736 735 734 733 732 731 730 728 727 726 725 723 722 721 719 718 717 716 716 715